Regional Weather Roundup
Issued by NWS New Orleans/Baton Rouge, LA

Home | Current Version | Previous Version | Graphics & Text | Print | Product List | Glossary On
Versions: 1 2 3 4 5 6 7 8 9 10 11 12 13 14 15 16 17 18 19 20 21 22 23 24 25 26 27 28 29 30 31 32 33 34 35 36 37 38 39 40 41 42 43 44 45 46 47 48 49 50
997
ASUS44 KLIX 260507
RWRLIX
NEW ORLEANS REGIONAL WEATHER ROUNDUP
NATIONAL WEATHER SERVICE NEW ORLEANS LA
1200 AM CDT THU MAR 26 2015

NOTE: "FAIR" INDICATES FEW OR NO CLOUDS BELOW 12,000 FEET WITH NO
      SIGNIFICANT WEATHER AND/OR OBSTRUCTIONS TO VISIBILITY.
      SKY/WX - SKY CONDITION AND SIGNIFICANT WEATHER.
      TMP - AIR TEMPERATURE.     DP    - DEWPOINT TEMPERATURE.
      RH  - RELATIVE HUMIDITY.   PRES  - PRESSURE.
      HI  - HEAT INDEX.          WCI   - WIND CHILL INDEX.

*  THESE STATIONS ARE NOT NWS OR FAA STATIONS AND ARE NOT UNDER
   NWS QUALITY CONTROL.

LAZ038-040-048-061>063-065>067-069-260600-
SOUTHEAST LOUISIANA

CITY           SKY/WX    TMP DP  RH WIND       PRES   REMARKS
N.O. AUDUBON     N/A     67  67 100 MISG        N/A
N.O. INTL ARPT MOCLDY    66  61  84 SE7       29.97F
N.O. LAKEFRONT   N/A     68  62  81 SE6       29.98F
SLIDELL          N/A     64  62  93 S3        29.97F
BATON ROUGE      N/A     68  59  73 SE9       29.94F
BOOTHVILLE       N/A     66  62  87 SE6       30.00F
BELLE CHASSE     N/A     68  62  81 SE6       29.97F
BOGALUSA*        N/A     67  60  77 S5        30.00S
GALLIANO*        N/A     71  65  81 CALM      29.98F
NEW ROADS*       N/A     65  56  71 S6        29.94F
GONZALES*        N/A     67  62  85 SE5       29.96F
HAMMOND*         N/A     64  59  82 S3        29.98F
HOUMA*           N/A     63  62  97 CALM      29.97F FOG
PORT FOURCHON* CLEAR     72  66  83 SE9       30.01F

$$

MSZ070-080>082-260600-
SOUTHERN MISSISSIPPI

CITY           SKY/WX    TMP DP  RH WIND       PRES   REMARKS
MCCOMB           N/A     63  58  83 S9        29.95F
GULFPORT         N/A     68  63  84 S7        29.98F
BILOXI           N/A     69  65  87 S7        29.98F
PASCAGOULA       N/A     61  61 100 SE3       29.99F FOG

$$

COASTAL OBSERVATIONS
LAKE AND NEARSHORE STATIONS

STATION/POSITION TIME  TEMP    WIND        PRES    WAVE
                       AIR SEA DIR/SP/G            HT/PER
                 (UTC) (F)     (DEG/KT/KT) (MB)    (FT/S)
PASCAGOULA       0400   70     150/  3/  7 1015.8
WAVELAND YACHT   0412   70 72  160/  9/ 11 1015.6
GRAND ISLE       0400   71 72  140/  7/ 10 1015.5
SOUTHWEST PASS   0400   67 51  140/ 11/ 13 1016.1
NEW CANAL        0400   68     150/  2/  4 1016.1
SHELL BEACH      0400   68 73  140/  7/  9 1015.7

OFFSHORE STATIONS

STATION/POSITION TIME  TEMP    WIND        PRES    WAVE
                       AIR SEA DIR/SP/G            HT/PER
                 (UTC) (F)     (DEG/KT/KT) (MB)    (FT/S)
64 S DAUPHIN ISL 0450   73 74  150/ 10/ 12 1016.5    2/ 5

$$




USA.gov is the U.S. government's official web portal to all federal, state and local government web resources and services.